Location: Unspecified
(0.0000°N, 0.0000°E)
Time: 11:39:47
(UTC+00:00)

S-56A Canister/Altair - Pass Details

Date: 29 November 2023
Orbit: 640 x 2488 km, 38.9° (Epoch: 24 February)

Event Time Altitude Azimuth Distance (km) Brightness Sun altitude
Exits shadow 01:59:21 - 227° (SW) 5,378 11.7 -51.5°
Reaches altitude 10° 02:03:48 10° 210° (SSW) 5,129 11.7 -50.6°
Maximum altitude 02:05:14 10° 204° (SSW) 5,094 11.7 -50.3°
Drops below altitude 10° 02:06:41 10° 198° (SSW) 5,084 11.8 -50.0°
Sets 02:17:15 0° 160° (SSE) 5,716 12.5 -47.8°
